Regional Weather Roundup
Issued by NWS

Home | Current Version | Previous Version | Text Only | Print | Product List | Glossary Off
Versions: 1 2 3 4 5 6 7 8 9 10 11 12 13 14 15 16 17 18 19 20 21 22 23 24 25 26 27 28 29 30 31 32 33 34 35 36 37 38 39 40 41 42 43 44 45 46 47 48 49 50

858
ASUS43 KLOT 280908
RWRIL

ILLINOIS REGIONAL WEATHER ROUNDUP
NATIONAL WEATHER SERVICE CHICAGO/ROMEOVILLE IL
400 AM CDT FRI APR 28 2017

NOTE: "FAIR" INDICATES FEW OR NO CLOUDS BELOW 12,000 FEET WITH NO
SIGNIFICANT WEATHER AND/OR OBSTRUCTIONS TO VISIBILITY.

* THESE STATIONS ARE NOT UNDER NWS QUALITY CONTROL. THEY ALSO MAY NOT
  REPORT WEATHER SUCH AS PRECIPITATION OR FOG.

ILZ001-002-007-009-015-016-024-281000-
NORTHWEST ILLINOIS

CITY           SKY/WX    TMP DP  RH WIND       PRES   REMARKS
MOLINE         CLOUDY    39  32  76 SE3       29.87R
STERLING*      MOCLDY    38  35  89 N3        29.87F
SAVANNA*       PTCLDY    34  33  96 N6        29.87F WCI  29
$$

ILZ003-004-008-010-011-017-018-281000-
NORTH CENTRAL ILLINOIS

CITY           SKY/WX    TMP DP  RH WIND       PRES   REMARKS
ROCKFORD       CLOUDY    40  32  73 W3        29.88S
FREEPORT*      PTCLDY    35  32  87 W3        29.89S
ROCHELLE*      MOCLDY    38  35  90 CALM      29.87F
DE KALB*       MOCLDY    38  34  85 NW5       29.86F WCI  35
PERU*          CLOUDY    42  37  84 N6        29.87R
$$

ILZ005-006-012>014-019>023-281000-
NORTHEAST ILLINOIS

CITY           SKY/WX    TMP DP  RH WIND       PRES   REMARKS
CHICAGO-OHARE  CLOUDY    42  36  79 W3        29.86F
CHICAGO-MIDWAY CLOUDY    43  39  86 N5        29.86F
AURORA         PTCLDY    38  36  92 N5        29.86F WCI  34
LANSING*       PTCLDY    44  44  98 CALM      29.85F
JOLIET*        CLOUDY    42  41  96 CALM      29.86F
WAUKEGAN       MOCLDY    40  35  83 VRB5      29.87R
DUPAGE AIRPORT PTCLDY    38  38 100 N3        29.85F
KANKAKEE*      CLEAR     43  41  91 CALM      29.86R
WHEELING       PTCLDY    41  37  86 CALM      29.87F
MORRIS*        CLOUDY    41  40  94 CALM      29.84F
ROMEOVILLE*    CLOUDY    39  39 100 NE5       29.86F
NORTHERLY ISL    N/A     45  38  76 CALM        N/A
$$

LMZ740>746-281000-
SOUTHERN LAKE MICHIGAN

STATION/POSITION SKY/WX   TEMP    WIND        PRES    VSBY  WAVE
                          AIR SEA DIR/SP/G                  HT/PER
                          (F)     (DEG/KT/KT) (MB)    (MI)  (FT/S)
SOUTHERN BUOY              42 41  250/ 12/ 14 1011.6          3/ 4
HARRISON CRIB              46     270/  8/  9   N/A
BURNHAM HARBOR             44     300/  3/  5   N/A
CALUMET HARBOR             43     360/  2/  3 1011.0F
BURNS HARBOR               47     190/ 10/ 14 1012.5S
MICHIGAN CITY              44     200/  4/  5   N/A
MICHIGAN CITY 6N           45 47                N/A           1/ 3
ST. JOSEPH                 46 48  190/  4/  6 1013.2          2/ 4
$$

ILZ025>027-034>036-040-047-049-050-058-095>099-281000-
WEST-CENTRAL ILLINOIS

CITY           SKY/WX    TMP DP  RH WIND       PRES   REMARKS
QUINCY         PTCLDY    50  46  86 SE7       29.84R
GALESBURG*     PTCLDY    41  39  93 N8        29.85S
MACOMB*        CLOUDY    47  46  96 S6        29.88R
JACKSONVILLE*  CLOUDY    51  46  86 SE6       29.87R
PITTSFIELD*    PTCLDY    51  47  86 E5        29.86R
$$

ILZ028>032-037-038-041>044-048-051>054-059>061-281000-
CENTRAL ILLINOIS

CITY           SKY/WX    TMP DP  RH WIND       PRES   REMARKS
PONTIAC        PTCLDY    45  45  99 CALM      29.86R
BLOOMINGTON    PTCLDY    45  43  93 S9        29.89R
DECATUR        CLOUDY    48  46  93 S7        29.90R
PEORIA         PTCLDY    48  45  89 S5        29.86R
LACON*         MOCLDY    44  44 100 N3        29.85R
LINCOLN*       CLOUDY    49  47  92 S5        29.90R
SPRINGFIELD    CLOUDY    51  47  86 SE3       29.88R
TAYLORVILLE    CLOUDY    48  46  93 SE5       29.89R
$$

ILZ033-039-045-046-055>057-062-063-281000-
EAST-CENTRAL ILLINOIS

CITY           SKY/WX    TMP DP  RH WIND       PRES   REMARKS
CHAMPAIGN      PTCLDY    48  43  82 SE10      29.88R
RANTOUL*       PTCLDY    48  46  91 S6        29.88R
MATTOON        CLOUDY    47  45  93 E5        29.86S
PARIS*         MOCLDY    47  45  92 E3        29.90R
$$

ILZ079-100>102-281000-
SOUTHWEST ILLINOIS

CITY           SKY/WX    TMP DP  RH WIND       PRES   REMARKS
ALTON          CLOUDY    50  48  93 E6        29.85F
BELLEVILLE     CLOUDY    52  52 100 N6        29.83F
CAHOKIA*       CLOUDY    54  49  83 NE6       29.83F
SPARTA*        CLOUDY    52  48  87 E8        29.82F
$$

ILZ064>066-069>071-074>076-080>082-084>086-088>090-092>094-281000-
SOUTH-CENTRAL ILLINOIS

CITY           SKY/WX    TMP DP  RH WIND       PRES   REMARKS
CARBONDALE     CLOUDY    53  51  93 SE3       29.87S
CAIRO*         MOCLDY    55  51  88 E3        29.87R
EFFINGHAM*     CLOUDY    49  49  99 E3        29.90R
MARION         CLOUDY    54  54 100 SE3       29.88S
MT. VERNON     CLOUDY    51  49  92 NE5       29.87R
CENTRALIA*     CLOUDY    53  50  90 E3        29.87R
SALEM*         CLOUDY    52  48  87 CALM      29.88R
METROPOLIS*    CLOUDY    53  51  92 E3        29.88S
$$

ILZ067-068-072-073-078-083-087-091-281000-
SOUTHEAST ILLINOIS

CITY           SKY/WX    TMP DP  RH WIND       PRES   REMARKS
LAWRENCEVILLE  CLOUDY    49  47  93 E8        29.89F
FLORA*         CLOUDY    51  49  90 S5        29.89R
FAIRFIELD*     CLOUDY    52  48  88 CALM      29.89R
HARRISBURG*    CLOUDY    52  50  94 E5        29.89R
ROBINSON*      CLOUDY    47  45  92 SE7       29.89S
CARMI*         CLOUDY    50  49  95 SE3       29.91R
$$

ABBREVIATIONS USED IN REMARKS
   TC - TEMPERATURE IN CELSIUS
  WCI - WIND CHILL INDEX
   HX - HEAT INDEX
  VSB - VISIBILITY
$$





USA.gov is the U.S. government's official web portal to all federal, state and local government web resources and services.